TimeEST,TemperatureF,Dew PointF,Humidity,Sea Level PressureIn,VisibilityMPH,Wind Direction,Wind SpeedMPH,Gust SpeedMPH,PrecipitationIn,Events,Conditions,WindDirDegrees,DateUTC
12:51 AM,36.0,34.0,93,30.11,6.0,NNE,15.0,-,0.12,Rain,Rain,20,2013-12-07 05:51:00
1:51 AM,36.0,33.1,89,30.11,10.0,NNE,12.7,-,0.01,,Overcast,20,2013-12-07 06:51:00
2:48 AM,35.6,33.8,93,30.21,3.0,North,6.9,-,0.01,Rain,Light Rain,350,2013-12-07 07:48:00
2:51 AM,36.0,34.0,93,30.20,3.0,North,5.8,-,0.01,Rain,Light Rain,360,2013-12-07 07:51:00
3:03 AM,35.6,35.6,100,30.19,3.0,North,8.1,-,0.01,Rain,Light Rain,10,2013-12-07 08:03:00
3:51 AM,36.0,35.1,97,30.18,8.0,North,6.9,-,0.02,,Overcast,10,2013-12-07 08:51:00
4:51 AM,37.0,34.0,89,30.20,6.0,North,8.1,-,0.00,,Light Drizzle,360,2013-12-07 09:51:00
5:24 AM,37.4,33.8,87,30.21,9.0,North,9.2,-,0.00,,Overcast,350,2013-12-07 10:24:00
5:51 AM,37.0,33.1,86,30.22,10.0,NNW,10.4,-,0.00,,Overcast,340,2013-12-07 10:51:00
6:15 AM,37.4,32.0,81,30.23,10.0,North,9.2,17.3,N/A,,Overcast,350,2013-12-07 11:15:00
6:51 AM,37.0,32.0,82,30.25,10.0,NNW,6.9,-,N/A,,Overcast,340,2013-12-07 11:51:00
7:51 AM,37.0,30.9,79,30.27,10.0,NW,6.9,-,N/A,,Mostly Cloudy,310,2013-12-07 12:51:00
8:51 AM,37.9,30.9,76,30.30,10.0,NW,9.2,-,N/A,,Mostly Cloudy,310,2013-12-07 13:51:00
9:51 AM,39.0,28.9,67,30.32,10.0,NNW,15.0,24.2,N/A,,Mostly Cloudy,340,2013-12-07 14:51:00
10:51 AM,42.1,30.0,62,30.32,10.0,NW,13.8,-,N/A,,Mostly Cloudy,320,2013-12-07 15:51:00
11:51 AM,39.9,26.1,58,30.32,10.0,WNW,17.3,23.0,N/A,,Mostly Cloudy,300,2013-12-07 16:51:00
12:51 PM,41.0,24.1,51,30.32,10.0,NNW,17.3,-,N/A,,Scattered Clouds,330,2013-12-07 17:51:00
1:51 PM,41.0,24.1,51,30.32,10.0,NNW,15.0,-,N/A,,Scattered Clouds,330,2013-12-07 18:51:00
2:51 PM,41.0,21.0,45,30.33,10.0,NNW,16.1,-,N/A,,Scattered Clouds,330,2013-12-07 19:51:00
3:51 PM,39.0,21.0,49,30.35,10.0,WNW,11.5,18.4,N/A,,Scattered Clouds,300,2013-12-07 20:51:00
4:51 PM,37.0,21.0,52,30.38,10.0,WNW,9.2,20.7,N/A,,Scattered Clouds,300,2013-12-07 21:51:00
5:51 PM,36.0,21.0,55,30.41,10.0,WNW,10.4,-,N/A,,Scattered Clouds,290,2013-12-07 22:51:00
6:51 PM,36.0,21.0,55,30.43,10.0,WNW,8.1,18.4,N/A,,Scattered Clouds,290,2013-12-07 23:51:00
7:51 PM,35.1,21.9,59,30.47,10.0,West,8.1,-,N/A,,Mostly Cloudy,270,2013-12-08 00:51:00
8:51 PM,34.0,18.0,52,30.49,10.0,WNW,9.2,-,N/A,,Mostly Cloudy,300,2013-12-08 01:51:00
9:51 PM,34.0,16.0,48,30.50,10.0,NW,11.5,19.6,N/A,,Mostly Cloudy,320,2013-12-08 02:51:00
10:51 PM,33.1,15.1,48,30.52,10.0,NW,11.5,-,N/A,,Mostly Cloudy,320,2013-12-08 03:51:00
11:51 PM,32.0,15.1,50,30.52,10.0,NNW,10.4,-,N/A,,Scattered Clouds,330,2013-12-08 04:51:00